Weather History for Merrill, WI

Change the Weather History Date:

Wednesday, February 13, 2013

  Actual Average Record
Temperature  
Mean Temperature 19 °F -  
Max Temperature 33 °F 27 °F 49 °F (1921)
Min Temperature 5 °F 3 °F -31 °F (1917)
Degree Days  
Heating Degree Days 46    
Moisture  
Dew Point 21 °F    
Average Humidity 87    
Maximum Humidity 100    
Minimum Humidity 69    
Precipitation  
Precipitation 0.00 in - - ()
Sea Level Pressure  
Sea Level Pressure 29.66 in    
Wind  
Wind Speed 1 mph (SW)    
Max Wind Speed 8 mph    
Max Gust Speed -    
Visibility 7 miles    
Events Snow    
Averages and records for this station are not official NWS values.
T = Trace of Precipitation, MM = Missing Value Source: NWS Daily Summary

Daily Weather History Graph

Daily Weather History Graph

Search for Another Location

Airport:

Trip Planner

Search our weather history database for the weather conditions in past years. The results will help you decide how hot, cold, wet, or windy it might be!

Date:

Astronomy

Feb. 13, 2013 Rise Set
Actual Time 7:02 AM CST 5:24 PM CST
Civil Twilight 6:32 AM CST 5:54 PM CST
Nautical Twilight 5:57 AM CST 6:29 PM CST
Astronomical Twilight 5:23 AM CST 7:03 PM CST
Moon 8:19 AM CST (2/13) 9:41 PM CST (2/13)
Length of Visible Light 11h 22m
Length of Day
10h 21m
Waxing Crescent, 14% of the Moon is Illuminated
Feb 13
Waxing Crescent
Feb 17
First Quarter
Feb 25
Full
Mar 4
Last Quarter
Mar 11
New

Hourly Weather History & Observations

Time (CST) Temp. Windchill Dew Point Humidity Pressure Visibility Wind Dir Wind Speed Gust Speed Precip Events Conditions
12:15 AM 5.0 °F - 1.4 °F 85% 29.75 in 10.0 mi Calm Calm - N/A   Clear
12:35 AM 5.0 °F - 3.2 °F 92% 29.75 in 10.0 mi Calm Calm - N/A   Mostly Cloudy
12:55 AM 8.6 °F - 5.0 °F 85% 29.75 in 10.0 mi Calm Calm - N/A   Overcast
1:15 AM 8.6 °F - 5.0 °F 85% 29.74 in 10.0 mi Calm Calm - N/A   Overcast
1:35 AM 10.4 °F - 8.6 °F 92% 29.73 in 10.0 mi Calm Calm - N/A   Overcast
1:55 AM 12.2 °F - 10.4 °F 92% 29.73 in 7.0 mi Calm Calm - N/A   Overcast
2:15 AM 12.2 °F - 10.4 °F 92% 29.72 in 7.0 mi Calm Calm - N/A   Overcast
2:35 AM 12.2 °F - 10.4 °F 92% 29.72 in 7.0 mi Calm Calm - N/A   Scattered Clouds
2:55 AM 12.2 °F - 10.4 °F 92% 29.71 in 7.0 mi Calm Calm - N/A   Mostly Cloudy
3:15 AM 12.2 °F - 10.4 °F 92% 29.71 in 10.0 mi Calm Calm - N/A   Mostly Cloudy
3:35 AM 12.2 °F - 10.4 °F 92% 29.71 in 10.0 mi Calm Calm - N/A   Scattered Clouds
3:55 AM 12.2 °F - 10.4 °F 92% 29.70 in 10.0 mi Calm Calm - N/A   Mostly Cloudy
4:15 AM 12.2 °F - 8.6 °F 85% 29.70 in 7.0 mi Calm Calm - N/A   Mostly Cloudy
4:35 AM 12.2 °F - 10.4 °F 92% 29.69 in 10.0 mi Calm Calm - N/A   Overcast
4:55 AM 14.0 °F - 10.4 °F 86% 29.69 in 7.0 mi Calm Calm - N/A   Overcast
5:15 AM 14.0 °F - 12.2 °F 93% 29.69 in 7.0 mi Calm Calm - N/A   Overcast
5:35 AM 14.0 °F - 12.2 °F 93% 29.70 in 10.0 mi Calm Calm - N/A   Overcast
6:15 AM 14.0 °F - 12.2 °F 93% 29.69 in 7.0 mi Calm Calm - N/A   Overcast
6:35 AM 17.6 °F - 14.0 °F 86% 29.68 in 7.0 mi Calm Calm - N/A   Overcast
6:55 AM 17.6 °F - 14.0 °F 86% 29.68 in 7.0 mi Calm Calm - N/A   Overcast
7:15 AM 17.6 °F - 15.8 °F 93% 29.68 in 4.0 mi Calm Calm - N/A   Overcast
7:35 AM 17.6 °F - 15.8 °F 93% 29.68 in 4.0 mi Calm Calm - N/A   Overcast
7:55 AM 17.6 °F - 15.8 °F 93% 29.68 in 4.0 mi Calm Calm - N/A   Overcast
8:15 AM 17.6 °F - 15.8 °F 93% 29.68 in 4.0 mi Calm Calm - N/A   Overcast
8:35 AM 19.4 °F - 17.6 °F 93% 29.68 in 4.0 mi Calm Calm - N/A   Overcast
8:55 AM 21.2 °F - 19.4 °F 93% 29.67 in 5.0 mi Calm Calm - N/A   Overcast
9:15 AM 23.0 °F - 21.2 °F 93% 29.67 in 5.0 mi Calm Calm - N/A   Overcast
9:35 AM 23.0 °F - 21.2 °F 93% 29.66 in 7.0 mi Calm Calm - N/A   Overcast
9:55 AM 24.8 °F - 21.2 °F 86% 29.67 in 5.0 mi Calm Calm - N/A   Overcast
10:15 AM 26.6 °F - 21.2 °F 80% 29.67 in 7.0 mi Calm Calm - N/A   Overcast
10:35 AM 26.6 °F - 21.2 °F 80% 29.66 in 7.0 mi Calm Calm - N/A   Mostly Cloudy
10:55 AM 26.6 °F 22.6 °F 21.2 °F 80% 29.66 in 7.0 mi WSW 3.5 mph - N/A   Overcast
11:15 AM 28.4 °F - 23.0 °F 80% 29.66 in 10.0 mi Calm Calm - N/A   Overcast
11:35 AM 30.2 °F 25.4 °F 23.0 °F 75% 29.66 in 10.0 mi SW 4.6 mph - N/A   Overcast
11:55 AM 30.2 °F 26.7 °F 23.0 °F 75% 29.65 in 10.0 mi WSW 3.5 mph - N/A   Overcast
12:15 PM 32.0 °F - 23.0 °F 69% 29.64 in 10.0 mi Calm Calm - N/A   Overcast
12:35 PM 32.0 °F 27.5 °F 23.0 °F 69% 29.63 in 10.0 mi SW 4.6 mph - N/A   Mostly Cloudy
12:55 PM 32.0 °F 28.7 °F 23.0 °F 69% 29.63 in 10.0 mi SW 3.5 mph - N/A   Mostly Cloudy
1:15 PM 32.0 °F 28.7 °F 23.0 °F 69% 29.63 in 10.0 mi SW 3.5 mph - N/A   Overcast
1:35 PM 32.0 °F 27.5 °F 24.8 °F 75% 29.63 in 10.0 mi SW 4.6 mph - N/A   Overcast
1:55 PM 33.8 °F 30.8 °F 24.8 °F 70% 29.63 in 10.0 mi SW 3.5 mph - N/A   Overcast
2:15 PM 33.8 °F 29.6 °F 24.8 °F 70% 29.62 in 10.0 mi SW 4.6 mph - N/A   Overcast
2:35 PM 33.8 °F 27.7 °F 26.6 °F 75% 29.63 in 10.0 mi SW 6.9 mph - N/A   Overcast
2:55 PM 32.0 °F 27.5 °F 24.8 °F 75% 29.63 in 10.0 mi SW 4.6 mph - N/A   Scattered Clouds
3:15 PM 33.8 °F 29.6 °F 26.6 °F 75% 29.63 in 10.0 mi WSW 4.6 mph - N/A   Mostly Cloudy
3:35 PM 32.0 °F 25.6 °F 24.8 °F 75% 29.63 in 10.0 mi WSW 6.9 mph - N/A   Overcast
3:55 PM 32.0 °F 25.6 °F 26.6 °F 80% 29.62 in 10.0 mi SW 6.9 mph - N/A   Overcast
4:15 PM 32.0 °F 24.8 °F 26.6 °F 80% 29.62 in 10.0 mi SW 8.1 mph - N/A   Overcast
4:35 PM 32.0 °F 26.4 °F 26.6 °F 80% 29.63 in 10.0 mi WSW 5.8 mph - N/A   Overcast
4:55 PM 32.0 °F 26.4 °F 26.6 °F 80% 29.63 in 10.0 mi SW 5.8 mph - N/A   Overcast
5:15 PM 32.0 °F 27.5 °F 28.4 °F 87% 29.63 in 10.0 mi WSW 4.6 mph - N/A   Overcast
5:35 PM 32.0 °F 27.5 °F 28.4 °F 87% 29.63 in 10.0 mi WSW 4.6 mph - N/A   Overcast
5:55 PM 32.0 °F 27.5 °F 28.4 °F 87% 29.64 in 7.0 mi WSW 4.6 mph - N/A Snow Light Snow
6:15 PM 32.0 °F 28.7 °F 30.2 °F 93% 29.64 in 2.0 mi SW 3.5 mph - N/A Snow Light Snow
6:35 PM 32.0 °F - 30.2 °F 93% 29.64 in 5.0 mi Calm Calm - N/A Snow Light Snow
6:55 PM 32.0 °F - 30.2 °F 93% 29.64 in 5.0 mi Calm Calm - N/A Snow Light Snow
7:15 PM 32.0 °F - 30.2 °F 93% 29.64 in 2.5 mi Calm Calm - N/A Snow Light Snow
7:35 PM 32.0 °F - 30.2 °F 93% 29.64 in 2.5 mi Calm Calm - N/A Snow Light Snow
7:55 PM 32.0 °F - 30.2 °F 93% 29.64 in 3.0 mi Calm Calm - N/A Snow Light Snow
8:15 PM 32.0 °F - 30.2 °F 93% 29.63 in 4.0 mi Calm Calm - N/A Snow Light Snow
8:35 PM 32.0 °F 28.7 °F 30.2 °F 93% 29.63 in 2.5 mi SW 3.5 mph - N/A Snow Light Snow
8:55 PM 32.0 °F - 30.2 °F 93% 29.63 in 2.5 mi Calm Calm - N/A Snow Light Snow
9:15 PM 30.2 °F - 30.2 °F 100% 29.63 in 4.0 mi Calm Calm - N/A Snow Light Snow
9:35 PM 30.2 °F - 30.2 °F 100% 29.62 in 1.5 mi Calm Calm - N/A Snow Light Snow
9:55 PM 30.2 °F - 30.2 °F 100% 29.61 in 2.0 mi Calm Calm - N/A Snow Light Snow
10:15 PM 30.2 °F - 30.2 °F 100% 29.61 in 2.5 mi Calm Calm - N/A Snow Light Snow
10:35 PM 30.2 °F - 30.2 °F 100% 29.61 in 2.5 mi Calm Calm - N/A Snow Light Snow
10:55 PM 30.2 °F - 30.2 °F 100% 29.60 in 2.5 mi Calm Calm - N/A Snow Light Snow
11:15 PM 30.2 °F - 30.2 °F 100% 29.61 in 2.0 mi Calm Calm - N/A Snow Light Snow
11:35 PM 30.2 °F - 30.2 °F 100% 29.60 in 1.5 mi Calm Calm - N/A Snow Light Snow
11:55 PM 30.2 °F - 30.2 °F 100% 29.60 in 1.2 mi Calm Calm - N/A Snow Light Snow